Hourly Data Report for September 20, 2017

All times are specified in Local Standard Time (LST). Add 1 hour to adjust for Daylight Saving Time where and when it is observed.

GJOA HAVEN A
NUNAVUT

68°38'08.000" N
95°51'01.000" W
46.90 m
2302337
71597
YHK

Download Data

Hourly Data (September 2017)
Hourly Data Report for September 20, 2017
Temp Definition
°C
Dew Point Temp Definition
°C
Rel Hum Definition
%
Wind Dir Definition
10's deg

Wind Spd Definition
km/h
Visibility Definition
km
Stn Press Definition
kPa
Hmdx Definition


Wind Chill Definition


Weather Definition


TIME
00:00 Legend Double Dagger -0.9 -2.5 89 8 32 16.1 101.95   -8 Snow
01:00 Legend Double Dagger -0.5 -1.8 91 7 30 16.1 101.97   -7 LegendNANA
02:00 Legend Double Dagger -0.4 -1.8 90 9 32 16.1 101.99   -7 LegendNANA
03:00 Legend Double Dagger -0.4 -1.4 93 7 34 11.3 102.00   -7 Snow
04:00 Legend Double Dagger -0.5 -1.1 96 8 30 4.8 102.02   -7 Snow
05:00 Legend Double Dagger -0.3 -1.3 93 7 30 16.1 102.05   -7 LegendNANA
06:00 Legend Double Dagger -0.4 -1.4 93 7 28 16.1 102.09   -7 LegendNANA
07:00 Legend Double Dagger -0.2 -1.3 92 7 34 16.1 102.11   -7 LegendNANA
08:00 Legend Double Dagger 0.0 -1.1 92 7 28 16.1 102.13   -6 LegendNANA
09:00 Legend Double Dagger 0.2 -0.9 92 8 32 16.1 102.13     LegendNANA
10:00 Legend Double Dagger 0.6 -0.6 92 8 28 16.1 102.14     LegendNANA
11:00 Legend Double Dagger 0.9 -0.6 90 8 26 16.1 102.13     LegendNANA
12:00 Legend Double Dagger 1.2 -0.6 88 8 26 16.1 102.14     LegendNANA
13:00 Legend Double Dagger 1.4 -0.9 85 9 26 16.1 102.18     LegendNANA
14:00 Legend Double Dagger 1.5 -1.2 82 8 26 16.1 102.18     LegendNANA
15:00 Legend Double Dagger 2.0 -0.3 85 7 26 16.1 102.17     LegendNANA
16:00 Legend Double Dagger 2.1 -0.8 81 7 26 16.1 102.18     LegendNANA
17:00 Legend Double Dagger 1.9 -1.2 80 8 22 16.1 102.19     LegendNANA
18:00 Legend Double Dagger 1.9 -1.4 79 7 26 16.1 102.18     LegendNANA
19:00 Legend Double Dagger 1.9 -0.9 82 7 30 16.1 102.18     LegendNANA
20:00 Legend Double Dagger 1.8 -1.9 77 9 28 16.1 102.19     LegendNANA
21:00 Legend Double Dagger 1.4 -0.2 89 7 28 16.1 102.17     LegendNANA
22:00 Legend Double Dagger 1.5 -1.0 83 7 26 16.1 102.16     LegendNANA
23:00 Legend Double Dagger 1.5 -0.6 86 7 26 16.1 102.15     LegendNANA

Notes on Data Quality.

Legend

  • E = Estimated
  • M = Missing
  • NA = Not Available
  • ‡ = Partner data that is not subject to review by the National Climate Archives
Date modified: